Date String (YYYY-MM-DD hh:mm:ss) UTC,Instrument flags,Ambient pressure (hPa),Sample flow (lpm),Bypass flow (lpm),Sample temperature (°C),Ambient temperature (°C),ASC tube jacket temperature (°C),LED temperature (°C),Box temperature (°C),Sample RH (%),Span deviation,Mass concentration (μg/m³),Mass concentration (μg/m³),Mass concentration (μg/m³)
DateTimeUTC,F1_M11,P_M11,Q1_M11,Q2_M11,T1_M11,T2_M11,T3_M11,T4_M11,T5_M11,U1_M11,ZSPAN_M11,X0_M11,X2_M11,X1_M11
2021-10-02 21:00:00,,0831.2,5.01,0.00,29.6,28.6,00.0,38.6,31.5,12.9,0002.2,0010.18,0003.97,0003.50
2021-10-02 21:01:00,,0831.2,5.00,0.00,29.7,28.8,00.0,38.6,31.6,12.6,0002.2,0010.84,0003.96,0003.51
2021-10-02 21:02:00,,0831.2,4.98,0.00,29.7,29.0,00.0,38.6,31.7,12.6,0002.3,0010.33,0003.97,0003.51
2021-10-02 21:03:00,,0831.2,5.01,0.00,29.8,29.1,00.0,38.6,31.7,12.9,0002.1,0010.04,0003.97,0003.52
2021-10-02 21:04:00,,0831.2,5.00,0.00,29.8,28.9,00.0,38.7,31.7,12.8,0001.6,0010.07,0003.99,0003.53
2021-10-02 21:05:00,,0831.2,5.00,0.00,29.8,27.0,00.0,38.7,31.2,12.5,0002.2,0010.55,0003.99,0003.52
2021-10-02 21:06:00,,0831.2,5.00,0.00,29.6,25.7,00.0,38.6,30.8,12.6,0002.0,0011.33,0003.99,0003.52
2021-10-02 21:07:00,,0831.2,4.99,0.00,29.5,25.9,00.0,38.6,30.9,12.3,0002.3,0011.45,0003.97,0003.51
2021-10-02 21:08:00,,0831.2,5.00,0.00,29.4,26.4,00.0,38.6,30.9,12.1,0001.0,0010.55,0003.97,0003.52
2021-10-02 21:09:00,,0831.2,5.00,0.00,29.4,26.9,00.0,38.6,31.0,12.1,0000.0,0010.32,0003.98,0003.52
2021-10-02 21:10:00,,0831.1,5.00,0.00,29.4,27.3,00.0,38.5,31.1,12.0,0000.0,0010.25,0003.99,0003.53
2021-10-02 21:11:00,,0831.2,5.01,0.00,29.4,27.7,00.0,38.5,31.2,12.3,0000.0,0010.21,0003.99,0003.54
2021-10-02 21:12:00,,0831.2,5.01,0.00,29.5,28.0,00.0,38.5,31.3,11.9,0000.0,0010.00,0004.03,0003.54
2021-10-02 21:13:00,,0831.2,5.00,0.00,29.5,28.3,00.0,38.5,31.4,12.1,0000.0,0010.01,0004.07,0003.55
2021-10-02 21:14:00,,0831.2,4.98,0.00,29.6,28.5,00.0,38.5,31.5,12.6,0000.0,0009.94,0004.07,0003.55
2021-10-02 21:15:00,,0831.2,5.00,0.00,29.6,28.7,00.0,38.6,31.5,12.2,0000.0,0009.90,0004.05,0003.55
2021-10-02 21:16:00,,0831.1,5.00,0.00,29.7,28.9,00.0,38.6,31.6,12.2,0000.0,0009.21,0004.05,0003.56
2021-10-02 21:17:00,,0831.2,5.00,0.00,29.8,29.0,00.0,38.6,31.7,12.1,0000.0,0008.36,0004.06,0003.57
2021-10-02 21:18:00,,0831.2,5.01,0.00,29.8,29.2,00.0,38.6,31.8,12.1,0000.0,0007.68,0004.08,0003.57
2021-10-02 21:19:00,,0831.2,4.99,0.00,29.9,28.9,00.0,38.7,31.7,12.1,0000.0,0007.61,0004.07,0003.58
2021-10-02 21:20:00,,0831.1,5.00,0.00,29.7,26.9,00.0,38.7,31.1,12.3,0000.0,0007.60,0004.06,0003.59
2021-10-02 21:21:00,,0831.2,5.01,0.00,29.5,25.6,00.0,38.7,30.7,12.1,0000.0,0007.69,0004.09,0003.59
2021-10-02 21:22:00,,0831.2,4.99,0.00,29.5,25.9,00.0,38.6,30.8,12.2,0000.0,0008.11,0004.11,0003.60
2021-10-02 21:23:00,,0831.2,5.00,0.00,29.4,26.4,00.0,38.6,30.9,12.0,0000.0,0007.76,0004.12,0003.62
2021-10-02 21:24:00,,0831.2,4.99,0.00,29.4,26.9,00.0,38.5,31.0,12.1,0000.0,0007.71,0004.09,0003.62
2021-10-02 21:25:00,,0831.2,5.01,0.00,29.4,27.4,00.0,38.5,31.1,11.8,0000.0,0008.30,0004.09,0003.64
2021-10-02 21:26:00,,0831.2,5.00,0.00,29.4,27.7,00.0,38.5,31.2,12.1,0000.0,0008.55,0004.12,0003.66
2021-10-02 21:27:00,,0831.2,4.99,0.00,29.5,28.0,00.0,38.5,31.3,12.0,0000.0,0009.14,0004.17,0003.67
2021-10-02 21:28:00,,0831.2,5.01,0.00,29.5,28.3,00.0,38.5,31.4,12.0,0000.0,0009.20,0004.16,0003.69
2021-10-02 21:29:00,,0831.2,5.00,0.00,29.6,28.5,00.0,38.5,31.5,12.0,0000.0,0009.55,0004.18,0003.70
2021-10-02 21:30:00,,0831.2,5.01,0.00,29.6,28.6,00.0,38.6,31.5,12.0,0000.5,0009.67,0004.21,0003.71
2021-10-02 21:31:00,,0831.2,5.00,0.00,29.7,28.8,00.0,38.6,31.6,11.9,0000.5,0010.46,0004.21,0003.71
2021-10-02 21:32:00,,0831.2,5.00,0.00,29.7,28.9,00.0,38.6,31.7,11.9,0000.0,0010.70,0004.21,0003.71
2021-10-02 21:33:00,,0831.2,5.00,0.00,29.8,29.1,00.0,38.6,31.7,11.6,0000.0,0010.54,0004.22,0003.72
2021-10-02 21:34:00,,0831.2,5.00,0.00,29.8,29.2,00.0,38.7,31.8,11.6,0000.0,0010.59,0004.22,0003.71
2021-10-02 21:35:00,,0831.2,5.01,0.00,29.9,29.2,00.0,38.7,31.8,11.4,0000.0,0010.49,0004.21,0003.72
2021-10-02 21:36:00,,0831.2,5.00,0.00,29.9,29.3,00.0,38.7,31.9,11.4,0000.0,0010.05,0004.23,0003.73
2021-10-02 21:37:00,,0831.2,4.99,0.00,30.0,28.3,00.0,38.8,31.7,11.4,0000.0,0010.57,0004.24,0003.73
2021-10-02 21:38:00,,0831.2,5.01,0.00,29.8,26.2,00.0,38.8,31.1,11.4,0000.0,0009.99,0004.22,0003.74
2021-10-02 21:39:00,,0831.2,5.00,0.00,29.6,25.7,00.0,38.7,30.9,11.5,0000.0,0009.94,0004.27,0003.76
2021-10-02 21:40:00,,0831.2,5.00,0.00,29.6,26.1,00.0,38.7,31.0,11.6,0000.0,0009.65,0004.25,0003.76
2021-10-02 21:41:00,,0831.2,5.00,0.00,29.5,26.6,00.0,38.7,31.0,11.7,0000.0,0009.92,0004.28,0003.77
2021-10-02 21:42:00,,0831.2,4.99,0.00,29.5,27.1,00.0,38.6,31.1,12.0,0000.0,0009.47,0004.31,0003.78
2021-10-02 21:43:00,,0831.2,5.01,0.00,29.5,27.5,00.0,38.6,31.2,12.0,0000.0,0009.26,0004.32,0003.78
2021-10-02 21:44:00,,0831.2,5.00,0.00,29.5,27.9,00.0,38.6,31.3,12.2,0000.0,0009.06,0004.32,0003.78
2021-10-02 21:45:00,,0831.2,5.00,0.00,29.6,28.2,00.0,38.6,31.4,12.1,0000.0,0008.96,0004.33,0003.78
2021-10-02 21:46:00,,0831.2,5.00,0.00,29.6,28.4,00.0,38.6,31.4,12.0,0000.0,0009.29,0004.34,0003.77
2021-10-02 21:47:00,,0831.2,4.99,0.00,29.6,28.6,00.0,38.6,31.5,11.9,0000.0,0009.53,0004.32,0003.76
2021-10-02 21:48:00,,0831.2,5.00,0.00,29.7,28.8,00.0,38.6,31.6,11.8,0000.0,0009.69,0004.33,0003.75
2021-10-02 21:49:00,,0831.2,5.01,0.00,29.7,28.9,00.0,38.7,31.6,11.7,0000.0,0009.65,0004.34,0003.75
2021-10-02 21:50:00,,0831.2,4.99,0.00,29.8,29.0,00.0,38.7,31.7,11.7,0000.0,0009.76,0004.31,0003.75
2021-10-02 21:51:00,,0831.2,4.99,0.00,29.8,29.1,00.0,38.7,31.8,11.7,0000.0,0010.05,0004.32,0003.75
2021-10-02 21:52:00,,0831.2,5.00,0.00,29.9,29.2,00.0,38.7,31.8,11.8,0000.0,0009.69,0004.29,0003.74
2021-10-02 21:53:00,,0831.2,5.00,0.00,29.9,29.3,00.0,38.8,31.8,11.9,0000.0,0009.31,0004.25,0003.74
2021-10-02 21:54:00,,0831.1,5.01,0.00,29.9,28.4,00.0,38.8,31.6,11.9,0000.0,0009.30,0004.24,0003.74
2021-10-02 21:55:00,,0831.1,4.99,0.00,29.7,26.2,00.0,38.8,31.0,11.7,0000.0,0009.33,0004.24,0003.74
2021-10-02 21:56:00,,0831.1,5.00,0.00,29.6,25.6,00.0,38.8,30.8,11.7,0000.0,0009.29,0004.25,0003.75
2021-10-02 21:57:00,,0831.0,5.01,0.00,29.5,26.0,00.0,38.7,30.8,11.8,0000.0,0008.92,0004.24,0003.76
2021-10-02 21:58:00,,0831.0,5.00,0.00,29.4,26.5,00.0,38.7,30.9,11.8,0000.0,0009.48,0004.26,0003.77
2021-10-02 21:59:00,,0831.0,5.00,0.00,29.4,27.0,00.0,38.6,31.1,12.1,0000.0,0008.58,0004.24,0003.77
